Location: Caribou
(46.8667°N, 68.0167°W)
Time: 06:51:46
(UTC-05:00)

Daily predictions for brighter satellites

Satellite Brightness Start Highest point End
(mag) Time Altitude Azimuth Time Altitude Azimuth Time Altitude Azimuth
Cosmos 2341 Rocket 4.2 16:08:27 10° N 16:14:42 82° W 16:20:54 10° S
Cosmos 2263 Rocket 3.7 16:12:56 10° WSW 16:17:54 31° NW 16:22:55 10° NNE
Cosmos 1500 4.4 16:15:15 10° NNE 16:18:16 22° ENE 16:21:18 10° ESE
Cosmos 1975 Rocket 3.0 16:14:54 10° S 16:19:12 81° E 16:23:34 10° N
IDEFIX/ARIANE 42P 2.9 16:16:55 10° SE 16:21:49 44° ENE 16:26:43 10° N
Cosmos 1975 3.6 16:21:12 10° N 16:24:53 32° ENE 16:28:32 10° SE
MSX 4.3 16:20:58 10° SE 16:26:10 37° ENE 16:31:24 10° N
Thor Agena Rocket 4.2 16:21:21 10° NNE 16:26:11 37° E 16:31:01 10° SSE
BREEZE-M DEB (TANK) 4.5 16:14:49 10° W 16:26:12 72° NNW 16:29:52 10° ENE
Meteor 1-12 Rocket 4.5 16:21:17 10° N 16:26:58 53° ENE 16:32:43 10° SSE
CSL-04 Rocket 4.2 16:22:07 10° S 16:27:34 67° WSW 16:33:07 10° NNW
Cosmos 1484 Rocket 4.1 16:27:00 10° ESE 16:29:33 18° ENE 16:32:07 10° NNE
MOS 1 4.3 16:25:30 10° SSE 16:31:02 60° ENE 16:36:36 10° N
Cosmos 2251 Rocket 3.6 16:25:51 10° NNW 16:31:15 86° WSW 16:36:34 10° SSE
CZ-4 R/B 1.4 16:27:24 10° SSE 16:31:30 61° ENE 16:35:35 10° N
SL-27 R/B 3.7 16:30:58 10° NNW 16:34:33 49° WSW 16:38:03 10° S
Cosmos 1536 Rocket 4.1 16:31:47 10° SSE 16:35:57 40° E 16:40:10 10° NNE
EO 1 Del DPAF 4.5 16:34:47 10° N 16:38:29 43° WNW 16:42:10 10° SW
SMAP 3.1 16:34:53 10° SSE 16:39:27 60° ENE 16:44:03 10° N
SL-8 R/B 4.1 16:35:25 10° SW 16:40:04 55° SSE 16:44:15 13° ENE
Cosmos 1844 Rocket 2.9 16:35:56 10° SSW 16:41:32 74° WNW 16:47:12 10° NNE
SL-16 R/B 4.4 16:37:06 10° N 16:42:03 26° WNW 16:47:00 10° WSW
ISS -2.8 16:39:30 10° W 16:42:44 50° NNW 16:45:16 15° ENE
Meteor 2-19 Rocket 4.5 16:37:01 10° N 16:43:07 88° WSW 16:49:10 10° S
YAOGAN 1 2.6 16:41:07 10° SSE 16:45:23 62° ENE 16:49:41 10° N
SJ-12 3.8 16:43:55 10° SSE 16:48:01 78° ENE 16:52:10 10° N
CORIOLIS 4.1 16:47:12 10° SSE 16:52:35 73° ENE 16:57:58 10° N
EP 2 4.2 16:51:24 10° SW 16:53:59 80° SE 16:55:51 19° NE
Cosmos 1812 2.6 16:51:14 10° S 16:55:05 78° E 16:58:58 10° NNE
USA 234 3.4 16:50:26 13° ENE 16:56:20 63° SE 17:02:47 10° SW
Cosmos 1455 Rocket 3.4 16:56:14 10° NNW 17:00:39 71° W 17:05:02 10° S
OPS 8737 4.4 16:59:09 10° SW 17:02:22 68° NW 17:04:35 18° NNE
BREEZE M DEB (TANK) 2.7 16:59:33 10° WNW 17:02:28 70° NNE 17:09:21 13° E
SKYMED 2 4.4 17:02:59 16° NE 17:05:48 31° E 17:09:39 10° SSE
NOSS 3-4 (A) 4.0 17:01:17 10° NW 17:07:59 50° NE 17:15:05 10° ESE
Cosmos 1844 4.1 17:02:35 10° SW 17:08:04 62° WNW 17:13:37 10° NNE
NOSS 3-4 (C) 4.0 17:01:23 10° NW 17:08:05 50° NE 17:15:10 10° ESE
Cosmos 1809 Rocket 4.4 17:05:20 10° N 17:11:30 73° E 17:17:36 10° SSE
Cosmos 2297 4.0 17:06:36 10° S 17:11:58 47° ESE 17:15:54 18° NE
Cosmos 1238 Rocket 3.0 17:09:53 10° SSW 17:12:47 50° WNW 17:15:59 10° N
Meteor 1-18 Rocket 4.4 17:08:11 10° SSW 17:13:51 79° WNW 17:19:40 10° N
Tiangong 1 2.6 17:11:42 10° SW 17:14:15 24° SSE 17:15:19 20° SE
Intercosmos 25 3.1 17:11:55 10° N 17:15:04 44° ENE 17:18:12 10° SSE
Okean 1 3.3 17:11:29 10° S 17:15:32 86° W 17:19:38 10° N
Cosmos 407 Rocket 4.4 17:11:15 10° N 17:15:34 26° NE 17:16:50 24° E
NOSS 3-3 (A) 4.0 17:10:55 10° SW 17:17:10 86° SE 17:22:33 17° NE
NOSS 3-3 (C) 4.0 17:11:01 10° SW 17:17:16 86° SE 17:22:38 17° NE
Okean 1-7 Rocket 3.9 17:17:48 10° SSE 17:22:05 45° E 17:24:55 20° NNE
Cosmos 2278 Rocket 2.3 17:17:01 10° SSW 17:22:40 75° WNW 17:27:56 12° NNE
Cosmos 1346 Rocket 2.6 17:20:05 10° S 17:23:58 80° E 17:27:05 15° NNE
Cosmos 1934 Rocket 4.3 17:18:18 10° N 17:24:11 43° ENE 17:30:06 10° SE
CZ-2C R/B 3.4 17:20:30 10° S 17:25:24 52° W 17:30:28 10° NNW
MONITOR-E 4.4 17:25:31 10° S 17:28:42 76° WSW 17:31:56 10° NNW
Cosmos 1535 Rocket 4.5 17:23:48 10° N 17:30:03 58° ENE 17:36:09 10° SSE
COSMOS 2441 4.4 17:25:51 10° SSE 17:30:43 82° WSW 17:35:41 10° NNW
METEOR-M 4.5 17:26:01 10° SE 17:30:57 40° ENE 17:35:55 10° N
TIMED 4.4 17:26:47 10° S 17:31:06 66° ESE 17:33:15 29° NE
ERBS 4.0 17:29:52 10° NNW 17:32:03 21° N 17:32:03 21° N
BREEZE-M R/B 4.1 17:23:52 10° WSW 17:34:19 79° SSE 17:36:49 33° ENE
Cosmos 1371 Rocket 4.4 17:30:51 10° S 17:35:51 42° ESE 17:37:25 33° ENE
COSMOS 2487 4.1 17:35:02 10° NW 17:38:23 37° WSW 17:41:43 10° S
CZ-3B DEB 2.7 17:34:54 10° WSW 17:39:15 75° NNW 17:45:33 24° NE
BREEZE M DEB (TANK) 3.0 17:32:24 10° SW 17:39:24 41° SSE 17:40:11 36° ESE
Cosmos 1833 Rocket 2.7 17:34:48 10° NNW 17:40:29 84° WSW 17:46:07 10° SSE
BREEZE-M DEB (TANK) 3.4 17:33:49 10° W 17:40:29 55° N 17:41:59 36° ENE
Cosmos 2239 Rocket 4.3 17:37:33 10° N 17:43:47 74° E 17:49:56 10° SSE
Cosmos 2082 Rocket 2.5 17:39:43 10° NNW 17:45:22 68° WSW 17:50:59 10° SSE
GEOS 3 Rocket 3.5 17:42:48 24° SE 17:45:55 69° NE 17:51:02 10° NW
CZ-3A R/B 4.2 17:41:03 10° W 17:47:19 67° N 18:06:15 25° ENE
Cosmos 1606 Rocket 3.6 17:43:52 10° N 17:48:16 54° ENE 17:52:39 10° SSE
Abrixas 4.2 17:45:50 10° W 17:48:26 28° SSW 17:49:03 26° S
Cosmos 1743 3.0 17:47:58 10° NNW 17:51:51 66° W 17:55:40 10° S
COSMO-SKYMED 1 2.5 17:51:35 26° NNE 17:54:00 86° W 17:58:20 10° SSW
Meteor 1-19 Rocket 4.2 17:49:18 10° S 17:55:06 84° E 18:00:46 11° NNE
Cosmos 1821 Rocket 3.8 17:49:02 10° N 17:55:10 85° E 18:01:17 10° S
Meteor 1-28 Rocket 4.0 18:01:05 41° S 18:01:05 41° S 18:03:40 10° S
BREEZE-M DEB (TANK) 3.6 17:58:22 10° W 17:59:30 27° WNW 17:59:30 27° WNW
Cosmos 1484 Rocket 4.1 18:00:16 10° SSW 18:03:47 38° W 18:07:17 10° NNW
Meteor 1-15 Rocket 4.2 17:58:58 10° N 18:04:53 70° ENE 18:10:41 10° SSE
Cosmos 1190 Rocket 3.8 18:00:22 10° NNW 18:05:38 74° ENE 18:07:24 42° SE
Cosmos 1605 Rocket 3.9 17:59:30 10° N 18:05:46 61° ENE 18:11:54 10° SSE
NOSS 2-1 (D) 3.4 18:06:08 10° SW 18:09:43 77° SW 18:09:43 77° SW
NOSS 2-1 (C) 3.4 18:06:48 10° SW 18:10:22 76° SSW 18:10:22 76° SSW
Cosmos 1025 Rocket 3.0 18:09:17 10° S 18:13:40 81° W 18:13:52 79° NW
Cosmos 921 Rocket 3.7 18:11:00 10° SW 18:15:10 52° WNW 18:16:17 41° NNW
ISS -0.9 18:16:35 10° WNW 18:17:57 20° NW 18:17:57 20° NW
Meteor 1-23 Rocket 4.1 18:14:43 10° S 18:20:26 86° E 18:22:05 48° NNE
Meteor 2-9 Rocket 4.3 18:17:08 10° NNW 18:22:35 70° W 18:27:52 10° S
SL-8 R/B 3.8 18:17:47 10° W 18:22:14 71° NW 18:22:14 71° NW
Meteor 2-4 Rocket 3.7 18:21:55 10° SSW 18:27:16 74° WNW 18:29:02 43° N
NOSS 2-1 (E) 4.2 18:25:27 10° SW 18:28:29 51° WSW 18:28:29 51° WSW
CZ-3A R/B 3.7 18:27:09 10° W 18:36:16 42° N 18:36:54 40° N
USA 234 3.6 18:37:47 46° NNE 18:39:17 55° NNW 18:45:37 10° W
Cosmos 407 Rocket 4.4 18:52:53 10° NNW 18:57:09 45° W 18:57:09 45° W
FALCON 9 R/B 3.9 18:42:59 10° WSW 18:58:22 37° SSW 19:00:04 33° S
Cosmos 2056 Rocket 4.3 18:53:59 10° SW 18:58:18 48° W 18:58:18 48° W
Cosmos 2278 Rocket 4.4 19:04:07 10° W 19:07:46 17° NW 19:09:48 15° NNW
CZ-3B DEB 4.2 20:08:08 10° WNW 20:13:40 51° NNW 20:13:40 51° NNW
